x

9410230 - La Jolla, Ca (ljac1) Weather Station

11:00 - Mon 24th Jul 2017 All times are PDT. -7 hours from GMT.

  • Wind
    6mph, 8mph gusts
  • Sea Temp 75°f
  • Luft Temp 71°f
  • Sea Pressure 1013.3mb
  • 9410230 - La Jolla, Ca
  • 9410230 - La Jolla, Ca

More Historic Weather Station data

Upgrade to MSW Pro to gain access to the past 30 days of data for over 8000 Wavebouys and Weather Stations around the globe.

Join Pro

Comparision Forecast

View Surf forecast
   
Mo 07/24 11:00 6 8 mph 1013.3mb 75f 71f
10:54 6 8 mph 1013.3mb 75f 70f
10:48 6 8 mph 1013.3mb 74f 70f
10:42 6 8 mph 1013.3mb 74f 71f
10:36 6 7 mph 1013.3mb 74f 71f
10:30 6 8 mph 1013.2mb 74f 71f
10:24 8 9 mph 1013.2mb 74f 71f
10:18 7 8 mph 1013.2mb 71f 71f
10:12 6 8 mph 1013.3mb 71f 71f
10:06 6 7 mph 1013.3mb 70f 71f
10:00 6 7 mph 1013.3mb 70f 71f
9:54 6 7 mph 1013.3mb 69f 71f
9:48 6 7 mph 1013.3mb 69f 71f
9:42 6 8 mph 1013.2mb 68f 71f
9:36 6 7 mph 1013.2mb 68f 71f
9:30 5 7 mph 1013.2mb 68f 71f
9:24 5 8 mph 1013.2mb 68f 71f
9:18 6 8 mph 1013.1mb 69f 71f
9:12 7 9 mph 1013.1mb 69f 70f
9:06 6 7 mph 1013.1mb 69f 71f
9:00 6 7 mph 1013.1mb 70f 71f
8:54 5 6 mph 1013.1mb 72f 71f
8:48 6 6 mph 1013.2mb 74f 71f
8:42 3 5 mph 1013.3mb 75f 71f
8:36 3 3 mph 1013.3mb 75f 71f
8:30 2 5 mph 1013.3mb 75f 71f
8:24 3 3 mph 1013.3mb 75f 71f
8:18 2 5 mph 1013.2mb 75f 70f
8:12 3 6 mph 1013mb 76f 70f
8:06 5 7 mph 1012.9mb 76f 70f
8:00 5 6 mph 1012.7mb 76f 70f
7:54 6 7 mph 1012.7mb 76f 70f
7:48 5 6 mph - - -
7:42 6 6 mph 1012.6mb 76f 71f
7:36 6 7 mph 1012.7mb 76f 70f
7:30 5 7 mph 1012.7mb 76f 70f
7:24 6 7 mph 1012.6mb 76f 70f
7:18 7 8 mph 1012.5mb 76f 70f
7:12 6 7 mph 1012.5mb 76f 70f
7:06 6 7 mph 1012.4mb 76f 70f
7:00 6 7 mph 1012.3mb 76f 70f
6:54 6 6 mph 1012.1mb 76f 70f
6:48 3 6 mph 1012mb 76f 70f
6:42 3 5 mph 1011.9mb 76f 70f
6:36 3 5 mph 1011.7mb 76f 70f
6:30 3 6 mph 1011.8mb 76f 70f
6:24 5 6 mph 1011.9mb 76f 70f
6:18 3 3 mph 1011.9mb 76f 70f
6:12 2 2 mph 1011.7mb 76f 70f
6:06  -  2 mph 1011.6mb 76f 70f
6:00 2 3 mph 1011.5mb 76f 70f
5:54 3 3 mph 1011.4mb 76f 70f
5:48 3 5 mph - - -
5:42 5 5 mph 1011.2mb 76f 70f
5:36 3 5 mph 1011.1mb 76f 70f
5:30 2 3 mph 1011.2mb 76f 70f
5:24 3 5 mph 1011.3mb 75f 70f
5:18 2 3 mph 1011.3mb 76f 70f
5:12 1 2 mph 1011.4mb 76f 69f
5:06 1 2 mph 1011.3mb 76f 69f
5:00  -  2 mph 1011.3mb 75f 69f
4:54  -  1 mph 1011.2mb 75f 69f
4:48  -  1 mph 1011.1mb 75f 69f
4:42  -  0 mph 1011.1mb 75f 69f
4:36  -  2 mph 1011.1mb 75f 69f
4:30 1 2 mph 1011.1mb 76f 69f
4:24 2 2 mph 1011.2mb 76f 69f
4:18 2 3 mph 1011.2mb 76f 69f
4:12 2 3 mph 1011.2mb 76f 69f
4:06 3 3 mph 1011.2mb 76f 69f
4:00 2 3 mph 1011.2mb 76f 69f
3:54 1 2 mph 1011.1mb 76f 69f
3:48 2 2 mph 1011mb 76f 69f
3:42 2 2 mph 1011mb 76f 69f
3:36  -  1 mph 1011.1mb 76f 69f
3:30 1 2 mph 1011.2mb 76f 69f
3:24 2 3 mph 1011.2mb 76f 69f
3:18 2 2 mph 1011.1mb 76f 69f
3:12  -  1 mph 1011.2mb 76f 69f
3:06 1 2 mph 1011.2mb 76f 69f
3:00 1 2 mph 1011.3mb 76f 69f
2:54 2 3 mph 1011.3mb 76f 69f
2:48 2 3 mph 1011.3mb 76f 69f
2:42 3 3 mph 1011.1mb 76f 69f
2:36 2 2 mph 1011.1mb 76f 69f
2:30 1 2 mph 1011.3mb 76f 69f
2:24 1 2 mph 1011.4mb 76f 69f
2:18 2 2 mph 1011.4mb 76f 69f
2:12 1 2 mph 1011.4mb 76f 69f
2:06  -  2 mph 1011.4mb 76f 69f
2:00 1 2 mph 1011.5mb 76f 69f
1:54 2 2 mph 1011.6mb 76f 69f
1:48 2 3 mph 1011.7mb 76f 69f
1:42 2 2 mph 1011.8mb 76f 69f
1:36 2 2 mph 1012mb 76f 69f
1:30 2 3 mph 1012mb 76f 69f
1:24 2 3 mph 1012mb 76f 69f
1:18 2 3 mph 1012mb 76f 69f
1:12 1 3 mph 1012mb 76f 69f
1:06 2 3 mph 1012mb 76f 69f
1:00 2 3 mph 1012.1mb 76f 69f
12:54 2 5 mph 1012.1mb 76f 69f
12:48 3 5 mph - - -
12:42 3 5 mph 1012.1mb 76f 69f
12:36 3 5 mph 1012.1mb 76f 69f
12:30 3 5 mph 1012.2mb 76f 69f
12:24 3 3 mph 1012.2mb 76f 69f
12:18 3 3 mph 1012.1mb 76f 69f
12:12 3 3 mph 1012.2mb 76f 69f
12:06 3 5 mph 1012.3mb 76f 69f
12:00 3 5 mph 1012.4mb 76f 69f
So 07/23 11:54 3 5 mph 1012.4mb 76f 69f
11:48 2 6 mph - - -
11:42 3 5 mph 1012.4mb 76f 69f
11:36 5 6 mph 1012.4mb 75f 69f
11:30 3 6 mph 1012.4mb 75f 69f
11:24 5 6 mph 1012.4mb 76f 69f
11:18 6 6 mph 1012.4mb 76f 69f
11:12 6 7 mph 1012.4mb 76f 69f
11:06 6 8 mph 1012.4mb 76f 69f
11:00 5 6 mph 1012.6mb 76f 69f
10:54 3 6 mph 1012.5mb 76f 69f
10:48 5 6 mph 1012.5mb 76f -
10:42 5 6 mph 1012.6mb 76f -
10:36 6 8 mph 1012.4mb 76f -
10:30 6 8 mph 1012.4mb 75f 70f
10:24 7 8 mph 1012.4mb 73f 69f
10:18 6 7 mph 1012.4mb 73f 70f
10:12 6 7 mph 1012.3mb 73f 70f
10:06 6 8 mph 1012.3mb 73f 70f
10:00 7 7 mph 1012.3mb 73f 70f
9:54 6 7 mph 1012.2mb 74f 70f
9:48 3 7 mph 1012.1mb 74f 70f
9:42 7 8 mph 1012.1mb 74f 70f
9:36 7 8 mph 1012.1mb 74f 69f
9:30 6 8 mph 1012.1mb 75f 70f
9:24 7 8 mph 1012mb 75f 70f
9:18 6 8 mph 1012mb 76f 70f
9:12 6 8 mph 1012mb 76f 70f
9:06 6 9 mph 1011.9mb 76f 70f
9:00 8 9 mph 1011.9mb 76f 70f
8:54 7 9 mph 1011.8mb 76f 70f
8:48 8 9 mph - - -
8:42 6 8 mph 1011.7mb 76f 70f
8:36 7 9 mph 1011.6mb 76f 70f
8:30 7 9 mph 1011.6mb 76f 70f
8:24 8 10 mph 1011.7mb 76f 70f
8:18 10 11 mph 1011.7mb 77f 70f
8:12 7 10 mph 1011.5mb 77f 70f
8:06 8 10 mph 1011.5mb 77f 70f
8:00 8 9 mph 1011.5mb 77f 70f
7:54 7 9 mph 1011.4mb 77f 70f
7:48 8 9 mph - - -
7:42 8 10 mph 1011.3mb 77f 70f
7:36 8 10 mph 1011.3mb 77f 70f
7:30 8 11 mph 1011.1mb 77f 70f
7:24 9 10 mph 1011mb 77f 70f
7:18 6 9 mph - - -
7:12 8 10 mph 1010.9mb 77f 71f
7:06 8 10 mph 1010.9mb 76f 70f
7:00 9 10 mph 1010.9mb 76f 70f
6:48 8 11 mph - - -
6:42 8 10 mph 1010.6mb 76f 71f
6:36 8 10 mph 1010.6mb 76f 71f
6:30 8 10 mph 1010.6mb 76f 71f
6:24 6 9 mph 1010.6mb 77f 71f
6:18 8 9 mph - - -
6:12 8 9 mph 1010.6mb 77f 71f
6:06 7 10 mph 1010.5mb 77f 71f
6:00 7 9 mph 1010.5mb 77f 71f
5:54 8 9 mph 1010.5mb 77f 71f
5:48 9 10 mph - - -
5:42 8 10 mph 1010.5mb 77f 71f
5:36 8 10 mph 1010.5mb 77f 71f
5:30 7 10 mph 1010.5mb 77f 71f
5:24 9 10 mph 1010.4mb 77f 71f
5:18 8 10 mph 1010.5mb 77f 71f
5:12 9 11 mph 1010.5mb 76f 71f
5:06 10 13 mph 1010.5mb 76f 71f
5:00 9 11 mph 1010.4mb 76f 71f
4:54 9 11 mph 1010.5mb 76f 71f
4:48 10 11 mph - - -
4:42 10 14 mph 1010.3mb 76f 72f
4:36 11 13 mph 1010.3mb 76f 72f
4:30 8 10 mph 1010.3mb 77f 72f
4:24 9 10 mph 1010.3mb 77f 72f
4:00 7 8 mph 1010.2mb 76f 72f
3:54 6 9 mph 1010.2mb 76f 72f
3:48 8 9 mph - - -
3:42 7 9 mph 1010.3mb 74f 72f
3:36 7 9 mph 1010.3mb 75f 72f
3:30 7 9 mph 1010.3mb 76f 72f
3:24 6 9 mph 1010.4mb 76f 72f
3:18 7 9 mph - - -
3:12 8 9 mph 1010.5mb 76f 71f
3:06 8 9 mph 1010.5mb 77f 71f
3:00 8 9 mph 1010.5mb 76f 71f
2:48 7 9 mph - - -
2:42 7 9 mph 1010.5mb 75f 71f
2:36 7 8 mph 1010.6mb 74f 71f
2:30 7 8 mph 1010.6mb 74f 71f
2:24 7 9 mph 1010.7mb 74f 71f
2:18 7 8 mph 1010.8mb 74f 71f
2:12 7 8 mph 1010.7mb 74f 71f
2:06 6 8 mph 1010.7mb 73f 71f
2:00 6 7 mph 1010.8mb 73f 71f
1:54 6 7 mph 1010.8mb 74f 71f
1:48 6 8 mph 1010.8mb 76f 71f
1:42 5 8 mph 1010.9mb 76f 71f
1:36 6 7 mph 1011mb 76f 71f
1:30 6 8 mph 1011mb 76f 71f
1:24 7 9 mph 1011mb 76f 71f
1:18 7 9 mph 1011.1mb 76f 71f
1:12 7 9 mph 1011.2mb 76f 71f
1:06 8 9 mph 1011.3mb 76f 71f
1:00 8 10 mph 1011.4mb 76f 70f
12:54 8 10 mph 1011.5mb 76f 71f
12:48 8 9 mph 1011.5mb 76f 71f
12:42 7 8 mph 1011.6mb 76f 71f
12:36 8 9 mph 1011.6mb 76f 71f
12:30 7 8 mph 1011.7mb 76f 71f
12:24 7 9 mph 1011.7mb 76f 71f
12:18 8 8 mph 1011.8mb 75f 71f
12:12 9 10 mph 1011.8mb 75f 70f
12:06 8 10 mph 1011.9mb 75f 70f
12:00 8 10 mph 1012mb 75f 70f
11:54 9 11 mph 1012.1mb 75f 70f
11:48 9 10 mph 1012.1mb 76f 70f
11:42 10 11 mph 1012.1mb 76f 70f
11:36 10 11 mph 1012.1mb 76f 70f
11:30 10 13 mph 1012.1mb 76f 70f
11:24 10 13 mph 1012.1mb 76f 70f
11:18 11 13 mph - - -
11:12 10 11 mph 1012.2mb 76f 70f
11:06 10 13 mph 1012.1mb 76f 70f
11:00 11 13 mph 1012.1mb 75f 70f
10:54 11 14 mph 1012.1mb 75f 70f
10:48 13 14 mph 1012.1mb 75f 70f
10:42 11 13 mph 1012.2mb 75f 70f
10:36 10 13 mph 1012.2mb 75f 70f
10:30 10 11 mph 1012.2mb 75f 70f
10:24 10 13 mph 1012.3mb 75f 70f
10:18 9 11 mph 1012.2mb 75f 71f
10:12 9 11 mph 1012.2mb 75f 71f
10:06 10 13 mph 1012.2mb 75f 70f
10:00 11 14 mph 1012.2mb 75f 71f
9:54 11 13 mph 1012.2mb 75f 71f
9:48 8 14 mph 1012.3mb 75f 71f
9:42 11 13 mph 1012.2mb 75f 71f
9:36 9 14 mph 1012.2mb 75f 71f
9:30 10 11 mph 1012.2mb 75f 71f
9:24 8 9 mph 1012.3mb 75f 71f
9:18 8 10 mph 1012.3mb 74f 71f
9:12 8 10 mph 1012.3mb 74f 71f
9:06 9 10 mph 1012.3mb 73f 71f
9:00 7 10 mph 1012.2mb 73f 71f
8:54 7 8 mph 1012.2mb 73f 71f
8:48 8 8 mph - - -
8:42 3 7 mph 1012.2mb 73f 72f
8:36 5 6 mph 1012.2mb 73f 72f
8:30 1 3 mph 1012.1mb 73f 74f
8:24  -  1 mph 1012.1mb 73f 75f
8:18  -  1 mph 1012.1mb 74f 75f
8:12  -  1 mph 1012mb 74f 75f
8:06  -  3 mph 1012mb 74f 74f
8:00  -  2 mph 1011.9mb 74f 73f
7:54 2 3 mph 1011.7mb 75f 72f
7:48 2 2 mph 1011.6mb 75f 72f
7:42 1 2 mph 1011.7mb 75f 73f
7:36 1 2 mph 1011.7mb 75f 73f
7:30 2 3 mph 1011.7mb 75f 72f
7:24 2 3 mph 1011.7mb 75f 71f
7:18 2 2 mph - - -
7:12 2 3 mph 1011.7mb 75f 71f
7:06 3 3 mph 1011.6mb 75f 70f
7:00 3 3 mph 1011.6mb 75f 70f
6:54 3 3 mph 1011.5mb 75f 69f
6:48 3 5 mph 1011.5mb 75f 69f
6:42 3 5 mph 1011.4mb 75f 69f
6:36 3 5 mph 1011.5mb 75f 69f
6:30 2 5 mph 1011.3mb 75f 68f
6:24 3 5 mph 1011.3mb 75f 68f
6:18 5 5 mph 1011.1mb 75f 68f
6:12 3 5 mph 1011.1mb 75f 68f
6:06 2 3 mph 1011mb 75f 68f
6:00 2 3 mph 1011mb 75f 68f
5:54 3 3 mph 1011mb 75f 68f
5:48 3 3 mph 1011mb 75f 68f
5:42 3 5 mph 1011mb 75f 68f
5:36 1 2 mph 1011mb 75f 69f
5:30 1 3 mph 1011.1mb 75f 69f
5:24 2 2 mph 1011.1mb 75f 69f
5:18 1 2 mph 1011mb 75f 69f
5:12 1 3 mph 1011mb 75f 69f
5:06 2 2 mph 1010.9mb 75f 69f
5:00 2 2 mph 1010.8mb 75f 68f
4:54 1 3 mph 1010.8mb 75f 68f
4:48 3 3 mph 1010.8mb 75f 68f
4:42 2 3 mph 1010.7mb 75f 69f
4:36 1 2 mph 1010.8mb 75f 69f
4:30 1 2 mph 1010.8mb 75f 69f
4:24 2 3 mph 1011mb 75f 69f
4:18 3 3 mph 1010.9mb 75f 69f
4:12 3 5 mph 1010.9mb 75f 69f
4:06 3 3 mph 1010.8mb 75f 69f
4:00 3 5 mph 1010.8mb 75f 68f
3:54 3 5 mph 1010.8mb 75f 68f
3:48 3 5 mph 1010.7mb 75f 68f
3:42 3 5 mph 1010.7mb 75f 68f
3:36 3 3 mph 1010.7mb 75f 69f
3:30 2 3 mph 1010.8mb 75f 69f
3:24 2 5 mph 1010.8mb 75f 69f
3:18 3 5 mph 1011mb 75f 69f
3:12 5 5 mph 1011.1mb 75f 69f
3:06 3 5 mph 1011mb 75f 69f
3:00 3 5 mph 1011mb 75f 69f
2:54 3 5 mph 1010.9mb 75f 69f
2:48 3 5 mph - - -
2:42 3 3 mph 1010.6mb 75f 69f
2:36 3 3 mph 1010.6mb 75f 69f
2:30 2 5 mph 1010.8mb 75f 69f
2:24 3 3 mph 1010.9mb 75f 69f
2:18 2 3 mph 1010.9mb 75f 69f
2:12 2 3 mph 1011.1mb 75f 69f
2:06 2 3 mph 1011mb 75f 69f
2:00 2 3 mph 1011mb 75f 69f
1:54 2 3 mph 1011mb 75f 68f
1:48 3 3 mph 1011.1mb 75f 69f
1:42 2 3 mph 1011.1mb 75f 68f
1:36 2 3 mph 1011.2mb 75f 68f
1:30 2 2 mph 1011.1mb 75f 68f
1:24 2 3 mph 1011.2mb 75f 68f
1:18 2 3 mph 1011.3mb 75f 68f
1:12 2 3 mph 1011.3mb 75f 68f
1:06 2 3 mph 1011.4mb 75f 68f
1:00 2 3 mph 1011.5mb 75f 68f
12:54 2 3 mph 1011.6mb 75f 68f
12:48 3 3 mph 1011.6mb 75f 68f
12:42 3 3 mph 1011.6mb 75f 69f
12:36 2 3 mph 1011.6mb 75f 69f
12:30 2 2 mph 1011.6mb 75f 69f
12:24 2 3 mph 1011.8mb 75f 69f
12:18 2 3 mph 1011.8mb 75f 69f
12:12 1 2 mph 1011.8mb 75f 69f
12:06 2 2 mph 1011.9mb 75f 69f
12:00 2 2 mph 1011.9mb 75f 69f
Sa 07/22 11:54 2 3 mph 1011.9mb 75f 69f
11:48 2 3 mph 1011.9mb 75f 69f
11:42 2 3 mph 1011.9mb - -
11:36 2 3 mph 1011.9mb - -
11:30 2 3 mph 1012mb 74f 69f
11:24 2 3 mph 1012.1mb 74f 69f
11:18 3 3 mph - - -
11:12 2 3 mph 1012.1mb 74f 69f
11:06 2 3 mph 1012.1mb 73f 69f
11:00 2 3 mph 1012.1mb 74f 69f
10:54 3 5 mph 1012.1mb 75f 69f
10:48 5 6 mph 1012.2mb 76f 69f
10:42 5 7 mph 1012.2mb 76f -
10:36 5 6 mph 1012.1mb 76f -
10:30 5 7 mph 1012.2mb 76f 69f
10:24 6 8 mph 1012.2mb 76f 69f
10:18 6 7 mph 1012.1mb 76f 69f
10:12 6 7 mph 1012.1mb 76f 69f
10:06 6 7 mph 1012.1mb 76f 69f
10:00 5 7 mph 1012.2mb 76f 69f
9:54 6 7 mph 1012.1mb 76f 69f
9:48 6 7 mph 1012.1mb 76f 69f
9:42 7 8 mph 1012.1mb 76f 69f
9:36 7 8 mph 1012mb 76f 69f
9:30 6 8 mph 1011.9mb 76f 69f
9:24 7 9 mph 1011.9mb 76f 69f
9:18 8 9 mph 1011.9mb 76f 69f
9:12 8 9 mph 1011.8mb 76f 69f
9:06 8 8 mph 1011.8mb 76f 69f
9:00 6 7 mph 1011.8mb 76f 69f
8:54 6 8 mph 1011.7mb 76f 69f
8:48 6 7 mph - - -
8:42 6 7 mph 1011.7mb 76f 69f
8:36 6 7 mph 1011.5mb 76f 69f
8:30 6 7 mph 1011.4mb 76f 69f
8:24 5 8 mph 1011.4mb 76f 69f
8:18 6 6 mph 1011.3mb 76f 69f
8:12 6 7 mph 1011.3mb 76f 69f
8:06 5 7 mph 1011.3mb 76f 69f
8:00 6 7 mph 1011.3mb 76f 69f
7:54 7 8 mph 1011.3mb 76f 69f
7:48 6 8 mph 1011.2mb 76f 69f
7:42 6 8 mph 1011.1mb 76f 69f
7:36 7 9 mph 1011.1mb 76f 69f
7:30 8 9 mph 1011mb 76f 69f
7:24 8 9 mph 1011mb 76f 69f
7:18 8 9 mph - - -
7:12 8 9 mph 1011mb 76f 69f
7:06 8 9 mph 1011mb 76f 69f
7:00 8 9 mph 1010.9mb 76f 69f
6:54 8 10 mph 1010.8mb 76f 69f
6:48 8 9 mph - - -
6:42 8 10 mph 1010.7mb 76f 69f
6:36 8 9 mph 1010.7mb 76f 69f
6:30 8 10 mph 1010.6mb 76f 69f
6:24 8 10 mph 1010.6mb 76f 69f
6:18 9 10 mph 1010.6mb 76f 69f
6:12 9 11 mph 1010.6mb 76f 69f
6:06 9 11 mph 1010.6mb 76f 69f
6:00 9 11 mph 1010.6mb 76f 69f
5:54 9 11 mph 1010.8mb 76f 69f
5:48 10 11 mph - - -
5:42 9 13 mph 1010.7mb 76f 69f
5:36 10 13 mph 1010.8mb 76f 69f
5:30 9 11 mph 1010.8mb 76f 69f
5:24 11 13 mph 1010.8mb 76f 69f
5:18 11 13 mph - - -
5:12 10 13 mph 1010.7mb 76f 69f
5:06 9 10 mph 1010.9mb 76f 69f
5:00 8 11 mph 1010.9mb 76f 69f
4:54 9 10 mph 1010.9mb 76f 69f
4:48 9 11 mph - - -
4:42 10 11 mph 1011mb 76f 69f
4:36 10 11 mph 1011.1mb 76f 69f
4:30 9 10 mph 1011.2mb 76f 69f
4:24 8 10 mph 1011.2mb 76f 69f
4:00 8 10 mph 1011.4mb 76f 69f
3:54 8 11 mph 1011.4mb 76f 69f
3:48 9 13 mph 1011.5mb - -
3:42 10 11 mph 1011.6mb 76f 69f
3:36 9 11 mph 1011.6mb 76f 69f
3:30 9 11 mph 1011.7mb 76f 69f
3:24 10 11 mph 1011.8mb 76f 69f
3:18 9 13 mph - - -
3:12 9 11 mph 1011.8mb 76f 69f
3:06 9 11 mph 1012mb 76f 69f
3:00 9 11 mph 1012mb 76f 69f
2:54 9 11 mph 1012.1mb 76f 69f
2:48 9 13 mph - - -
2:42 9 13 mph 1012.2mb 76f 69f
2:36 9 11 mph 1012.2mb 76f 69f
2:30 9 13 mph 1012.3mb 76f 70f
2:24 9 11 mph 1012.3mb 76f 70f
2:18 10 13 mph 1012.4mb 76f 69f
2:12 10 11 mph 1012.4mb 76f 70f
2:06 8 10 mph 1012.4mb 76f 70f
2:00 7 9 mph 1012.4mb 76f 70f
1:54 8 10 mph 1012.4mb 76f 70f
1:48 8 9 mph 1012.4mb 76f 70f
1:42 7 9 mph 1012.5mb 76f 70f
1:36 8 10 mph 1012.5mb 76f 70f
1:30 8 10 mph 1012.6mb 75f 70f
1:24 9 10 mph 1012.6mb 76f 70f
1:18 8 11 mph 1012.7mb 76f 70f
1:12 9 11 mph 1012.7mb 76f 70f
1:06 8 10 mph 1012.8mb 76f 70f
1:00 8 10 mph 1012.9mb 76f 70f
12:54 9 10 mph 1012.9mb 76f 70f
12:48 8 9 mph 1013mb 76f 70f
12:42 7 10 mph 1013mb 75f 70f
12:36 7 9 mph 1013mb 74f 70f
12:30 8 10 mph 1013mb 72f 70f
12:24 9 10 mph 1013mb 71f 70f
12:18 9 11 mph 1013mb 72f 70f
12:12 8 10 mph 1013.1mb 71f 70f
12:06 8 13 mph 1013mb 71f 70f
12:00 9 11 mph 1013mb 72f 70f
11:54 9 11 mph 1013mb 73f 70f
11:48 9 11 mph - - -
11:42 9 11 mph 1013mb 72f 70f
11:36 9 11 mph 1013mb 73f 70f
11:30 8 11 mph 1013.1mb 74f 70f
11:24 9 10 mph 1013mb 74f 70f
11:18 9 10 mph 1013mb 76f 70f
11:12 9 11 mph 1012.9mb 76f 70f
11:06 10 11 mph 1012.9mb 76f 70f
11:00 9 11 mph 1012.9mb 76f 70f
10:54 9 10 mph 1012.9mb 76f 70f
10:48 9 10 mph 1012.9mb 75f 70f
10:42 8 9 mph 1012.9mb 75f 70f
10:36 7 10 mph 1013mb 75f 71f
10:30 7 9 mph 1013mb 75f 71f
10:24 8 9 mph 1013mb 75f 71f
10:18 7 9 mph 1013mb 75f 71f
10:12 7 9 mph 1013.1mb 75f 71f
10:06 6 7 mph 1013.1mb 73f 71f
10:00 6 7 mph 1013.2mb 73f 71f
9:54 6 8 mph 1013.2mb 74f 71f
9:48 6 8 mph 1013.1mb 75f 71f
9:42 5 6 mph 1013mb 75f 71f
9:36 3 6 mph 1012.9mb 75f 72f
9:30 5 6 mph 1012.9mb 75f 71f
9:24 5 6 mph 1012.8mb 75f 71f
9:18 6 6 mph - - -
9:12 5 6 mph 1012.8mb 75f 72f
9:06 5 6 mph 1012.8mb 75f 71f
9:00 5 7 mph 1012.9mb 75f 71f
8:54 5 7 mph 1012.9mb 75f 71f
8:48 5 6 mph - - -
8:42 3 5 mph 1012.9mb 75f 71f
8:36 3 5 mph 1012.8mb 75f 71f
8:30 3 5 mph 1012.8mb 75f 71f
8:24 2 5 mph 1012.8mb 75f 71f
8:18 2 5 mph 1012.8mb 75f 71f
8:12 3 5 mph 1012.9mb 75f 71f
8:06 3 5 mph 1012.9mb 75f 71f
8:00 2 3 mph 1013mb 75f 70f
7:54  -  3 mph 1012.9mb 75f 70f
7:48 2 6 mph - - -
7:42 2 5 mph 1012.8mb 75f 70f
7:36 3 6 mph 1012.7mb 75f 70f
7:30 6 8 mph 1012.6mb 75f 70f
7:24  -  1 mph 1012.5mb 75f 70f
7:18 1 5 mph 1012.5mb 75f 70f
7:12 2 5 mph 1012.5mb 75f 70f
7:06  -  3 mph 1012.4mb 75f 70f
7:00 3 6 mph 1012.4mb 75f 69f
6:54 3 6 mph 1012.4mb 75f 70f
6:48 3 5 mph 1012.4mb 75f 70f
6:42 2 5 mph 1012.4mb 75f 69f
6:36  -  3 mph 1012.3mb 75f 69f
6:30 2 3 mph 1012.2mb 75f 69f
6:24 2 5 mph 1012.2mb 75f 69f
6:18 6 7 mph 1012.2mb 75f 69f
6:12  -  3 mph 1012.1mb 75f 69f
6:06 3 6 mph 1012.1mb 75f 69f
6:00 5 6 mph 1012.1mb 75f 69f
5:54 5 6 mph 1012.1mb 75f 69f
5:48 6 6 mph 1012.1mb 75f 69f
5:42 5 6 mph 1012mb 75f 69f
5:36 2 3 mph 1012mb 75f 69f
5:30 2 6 mph 1012mb 75f 69f
5:24 6 7 mph 1012mb 75f 69f
5:18 5 7 mph 1012mb 75f 69f
5:12 5 7 mph 1012mb 75f 69f
5:06 6 7 mph 1012mb 75f 69f
5:00 6 6 mph 1012mb 75f 69f
4:54 5 6 mph 1011.9mb 75f 69f
4:48 5 6 mph 1011.9mb 75f 69f
4:42 2 3 mph 1011.9mb 75f 69f
4:36 2 3 mph 1011.8mb 75f 69f
4:30 2 3 mph 1011.8mb 75f 69f
4:24 3 3 mph 1011.8mb 75f 69f
4:18 2 3 mph 1011.8mb 75f 69f
4:12 2 5 mph 1011.8mb 75f 69f
4:06 5 6 mph 1011.8mb 75f 69f
4:00 6 7 mph 1011.8mb 75f 69f
3:54 3 6 mph 1011.8mb 75f 69f
3:48 5 6 mph - - -
3:42 3 6 mph 1011.9mb 75f 69f
3:36 2 5 mph 1011.9mb 75f 69f
3:30 1 6 mph 1012mb 75f 69f
3:24 5 5 mph 1012mb 75f 69f
3:18 5 6 mph 1012mb 75f 69f
3:12 3 5 mph 1012mb 75f 69f
3:06 3 5 mph 1012.1mb 75f 69f
3:00 3 5 mph 1012.1mb 75f 69f
2:54 3 6 mph 1012.2mb 75f 69f
2:48 5 6 mph 1012.3mb 75f 69f
2:42 3 6 mph 1012.2mb 75f 69f
2:36 3 5 mph 1012.3mb 75f 69f
2:30  -  2 mph 1012.1mb 75f 69f
2:24 2 3 mph 1012.1mb 75f 69f
2:18 3 6 mph 1012.2mb 75f 69f
2:12 3 5 mph 1012.2mb 75f 69f
2:06 3 5 mph 1012.2mb 75f 69f
2:00 3 6 mph 1012.3mb 75f 69f
1:54 3 6 mph 1012.3mb 75f 69f
1:48 2 5 mph 1012.4mb 75f 69f
1:42 3 6 mph 1012.4mb 75f 69f
1:36 5 7 mph 1012.4mb 75f 69f
1:30 2 7 mph 1012.4mb 75f 69f
1:24 5 6 mph 1012.4mb 75f 69f
1:18 5 6 mph 1012.4mb 75f 69f
1:12 2 3 mph 1012.4mb 74f 69f
1:06 1 3 mph 1012.5mb 73f 70f
1:00  -  6 mph 1012.6mb 74f 69f
12:54 5 6 mph 1012.7mb 74f 69f
12:48 2 5 mph 1012.7mb 74f 69f
12:42 5 6 mph 1012.8mb 74f 69f
12:36 6 7 mph 1012.8mb 72f 69f
12:30 6 7 mph 1012.8mb 70f 69f
12:24 2 3 mph 1012.9mb 68f 69f
12:18 3 3 mph - - -
12:12 3 5 mph 1012.9mb 67f 69f
12:06 3 6 mph 1012.8mb 66f 69f
12:00 5 5 mph 1012.9mb 66f 69f
Fr 07/21 11:54 3 6 mph 1012.9mb 66f 69f
11:48 2 5 mph - - -
11:42 3 5 mph 1012.9mb 67f 69f
11:36 2 5 mph 1012.9mb 68f 69f
11:30 3 5 mph 1012.9mb 68f 69f
11:24 3 5 mph 1012.9mb 68f 69f
11:18 3 5 mph 1013mb 69f 69f
11:12 5 5 mph 1013mb 70f 69f
11:06 3 5 mph 1013mb 71f 69f
11:00 5 5 mph 1012.9mb 71f 69f
10:54 3 5 mph 1012.9mb 72f 69f
10:48 5 6 mph 1012.9mb 72f 69f
10:42 5 6 mph 1012.9mb 73f -
10:36 3 5 mph 1012.8mb 74f -
10:30 3 5 mph 1012.8mb 75f 70f
10:24 2 3 mph 1012.9mb 75f 70f
10:18 3 5 mph 1012.8mb 75f 70f
10:12 3 5 mph 1012.8mb 75f 70f
10:06 2 3 mph 1012.8mb 76f 69f
10:00 2 3 mph 1012.7mb 76f 70f
9:54 2 3 mph 1012.7mb 76f 69f
9:48 2 3 mph - - -
9:42 3 5 mph 1012.6mb 76f 69f
9:36 2 3 mph 1012.6mb 76f 69f
9:30 2 3 mph 1012.5mb 76f 69f
9:24 2 3 mph 1012.5mb 76f 69f
9:18 2 3 mph 1012.4mb 76f 69f
9:12 3 5 mph 1012.3mb 76f 69f
9:06 2 3 mph 1012.2mb 76f 69f
9:00 2 5 mph 1012.2mb 76f 69f
8:54 3 5 mph 1012.1mb 76f 69f
8:48 2 6 mph - - -
8:42 3 6 mph 1012mb 76f 69f
8:36 3 6 mph 1011.9mb 76f 69f
8:30 5 6 mph 1011.9mb 76f 69f
8:24 3 6 mph 1011.8mb 76f 69f
8:18 5 6 mph - - -
8:12 5 6 mph 1011.8mb 76f 70f
8:06 3 5 mph 1011.8mb 76f 70f
8:00 3 6 mph 1011.8mb 76f 70f
7:54 5 6 mph 1011.7mb 76f 70f
7:48 5 6 mph 1011.6mb 76f 70f
7:42 2 5 mph 1011.5mb 76f 70f
7:36 3 6 mph 1011.6mb 76f 70f
7:30 3 5 mph 1011.6mb 76f 70f
7:24 3 5 mph 1011.6mb 76f 70f
7:18 3 7 mph 1011.5mb - -
7:12 6 8 mph 1011.6mb 76f 70f
7:06 3 6 mph 1011.6mb 76f 70f
7:00 5 6 mph 1011.6mb 76f 70f
6:54 5 6 mph 1011.6mb 76f 70f
6:48 5 8 mph 1011.6mb 76f 70f
6:42 5 7 mph 1011.5mb 76f 70f
6:36 3 6 mph 1011.5mb 76f 71f
6:30 3 7 mph 1011.5mb 76f 71f
6:24 5 7 mph 1011.6mb 76f 71f
6:18 6 7 mph - - -
6:12 5 6 mph 1011.5mb 76f 71f
6:06 6 7 mph 1011.5mb 76f 71f
6:00 6 7 mph 1011.5mb 76f 72f
5:54 5 6 mph 1011.5mb 76f 72f
5:48 3 6 mph 1011.6mb 76f 71f
5:42 3 7 mph 1011.6mb 76f 71f
5:36 5 7 mph 1011.7mb 76f 72f
5:30 3 6 mph 1011.7mb 76f 71f
5:24 5 7 mph 1011.7mb 76f 72f
5:18 5 8 mph 1011.8mb - -
5:12 3 6 mph 1011.8mb 76f 72f
5:06 6 7 mph 1011.9mb 76f 71f
5:00 6 8 mph 1011.9mb 76f 72f
4:54 6 7 mph 1011.9mb 76f 72f
4:48 6 8 mph 1012mb 76f 72f
4:42 5 7 mph 1012mb 76f 72f
4:36 6 7 mph 1012mb 76f 72f
4:30 7 8 mph 1012.1mb 76f 72f
4:24 6 8 mph 1012.2mb 76f 72f
4:18 5 8 mph - - -
4:12 6 8 mph 1012.2mb 76f 72f
4:06 6 7 mph 1012.3mb 76f 73f
4:00 5 7 mph 1012.3mb 76f 73f
3:54 6 8 mph 1012.3mb 76f 73f
3:48 6 8 mph - - -
3:42 7 9 mph 1012.4mb 76f 72f
3:36 7 9 mph 1012.4mb 76f 72f
3:30 7 9 mph 1012.4mb 76f 72f
3:24 7 9 mph 1012.4mb 76f 72f
3:18 6 8 mph - - -
3:12 6 8 mph 1012.5mb 76f 72f
3:06 8 9 mph 1012.5mb 76f 72f
3:00 6 8 mph 1012.6mb 76f 72f
2:54 6 8 mph 1012.7mb 76f 73f
2:48 5 8 mph 1012.7mb 76f 72f
2:42 6 9 mph 1012.8mb 75f 72f
2:36 7 8 mph 1012.8mb 75f 71f
2:30 7 8 mph 1012.8mb 75f 71f
2:24 7 9 mph 1012.9mb 75f 71f
2:18 7 8 mph 1013.1mb 75f 71f
2:12 6 8 mph 1013.2mb 74f 71f
2:06 6 8 mph 1013.2mb 74f 71f
2:00 6 8 mph 1013.2mb 75f 71f
1:54 7 8 mph 1013.3mb 75f 71f
1:48 7 9 mph 1013.4mb 75f 71f
1:42 6 9 mph 1013.4mb 75f 71f
1:36 7 8 mph 1013.6mb 75f 71f
1:30 7 9 mph 1013.6mb 75f 70f
1:24 9 10 mph 1013.7mb 74f 70f
1:18 8 9 mph - - -
1:12 8 10 mph 1013.8mb 74f 70f
1:06 8 9 mph 1013.9mb 74f 70f
1:00 8 10 mph 1014mb 74f 70f
12:54 9 10 mph 1014mb 74f 70f
12:48 8 10 mph 1014mb 74f 70f
12:42 9 10 mph 1014.1mb 73f 70f
12:36 9 10 mph 1014.2mb 74f 70f
12:30 9 10 mph 1014.2mb 73f 70f
12:24 10 13 mph 1014.3mb 73f 70f
12:18 9 11 mph - - -
12:12 10 13 mph 1014.3mb 73f 70f
12:06 11 14 mph 1014.4mb 73f 70f
12:00 11 14 mph 1014.4mb 73f 69f
11:54 11 13 mph 1014.4mb 73f 69f
11:48 11 14 mph 1014.5mb 72f 69f
11:42 11 14 mph 1014.5mb 73f 69f
11:36 11 14 mph 1014.6mb 72f 69f
11:30 13 14 mph 1014.6mb 72f 69f
11:24 11 14 mph 1014.7mb 72f 69f
11:18 14 15 mph - - -
11:12 11 14 mph 1014.7mb 72f 69f
11:06 11 14 mph 1014.7mb 73f 69f
11:00 11 14 mph 1014.7mb 73f 69f
10:54 11 14 mph 1014.8mb 73f 69f
10:48 11 14 mph - - -
10:42 10 13 mph 1014.7mb 74f 69f
10:36 11 14 mph 1014.7mb 75f 69f
10:30 10 13 mph 1014.7mb 75f 69f
10:24 10 13 mph 1014.7mb 75f 69f
10:18 9 13 mph - - -
10:12 10 13 mph 1014.7mb 75f 70f
10:06 9 11 mph 1014.6mb 75f 70f
10:00 9 11 mph 1014.5mb 75f 70f
9:54 9 10 mph 1014.4mb 75f 70f
9:48 9 10 mph 1014.4mb 75f 70f
9:42 8 10 mph 1014.5mb 75f 70f
9:36 10 11 mph 1014.4mb 75f 70f
9:30 9 10 mph 1014.4mb 75f 70f
9:24 9 11 mph 1014.4mb 75f 70f
9:18 8 10 mph - - -
9:12 9 10 mph 1014.4mb 75f 70f
9:06 9 10 mph 1014.4mb 75f 70f
9:00 8 9 mph 1014.4mb 75f 70f
8:54 7 8 mph 1014.5mb 75f 70f
8:48 3 5 mph 1014.5mb 75f 70f
8:42 2 6 mph 1014.5mb 75f 70f
8:36 3 6 mph 1014.5mb 74f 70f
8:30 3 6 mph 1014.4mb 74f 71f
8:24 1 2 mph 1014.3mb 74f 71f
8:18 2 3 mph - - -
8:12 2 2 mph 1014.3mb 74f 70f
8:06  -  2 mph 1014.3mb 74f 70f
8:00  -  2 mph 1014.3mb 74f 70f
7:54 2 5 mph 1014.2mb 74f 69f
7:48 1 5 mph 1014.2mb 74f 69f
7:42 2 6 mph 1014.2mb 74f 69f
7:36 3 6 mph 1014.1mb 74f 69f
7:30 6 7 mph 1014.1mb 74f 69f
7:24 3 5 mph 1014mb 74f 69f
7:18 2 6 mph 1014mb 74f 69f
7:12 6 7 mph 1013.9mb 74f 69f
7:06 2 3 mph 1013.9mb 74f 69f
7:00 3 5 mph 1013.9mb 74f 68f
6:54 2 6 mph 1013.8mb 74f 68f
6:48 2 3 mph 1013.8mb 74f 68f
6:42 2 6 mph 1013.7mb 74f 68f
6:36 6 6 mph 1013.7mb 74f 68f
6:30 2 6 mph 1013.7mb 74f 68f
6:24 5 7 mph 1013.8mb 73f 68f
6:18 5 6 mph 1013.7mb 73f 68f
6:12 2 3 mph 1013.6mb 73f 68f
6:06 5 6 mph 1013.5mb 73f 68f
6:00 3 3 mph 1013.5mb 74f 68f
5:54 2 3 mph 1013.5mb 74f 68f
5:48 2 5 mph 1013.4mb 74f 68f
5:42 3 5 mph 1013.3mb 73f 68f
5:36 3 5 mph 1013.3mb 73f 68f
5:30  -  3 mph 1013.3mb 74f 69f
5:24 2 3 mph 1013.3mb 74f 69f
5:18 1 3 mph 1013.2mb 73f 68f
5:12 2 3 mph 1013mb 73f 68f
5:06 3 3 mph 1013mb 72f 68f
5:00 1 2 mph 1013mb 72f 68f
4:54 2 2 mph 1013mb 71f 68f
4:48  -  2 mph 1012.9mb 69f 68f
4:42 2 3 mph 1012.9mb 69f 69f
4:36 2 3 mph 1013mb 71f 69f
4:30 3 7 mph 1013mb 71f 69f
4:24 3 9 mph 1013mb 71f 69f
4:18 6 7 mph 1013mb 71f 68f
4:12 5 6 mph 1012.9mb 71f 68f
4:06 5 6 mph 1012.9mb 71f 68f
4:00 3 3 mph 1012.8mb 69f 68f
3:54 2 3 mph 1012.8mb 69f 68f
3:48 2 3 mph - - -
3:42 1 2 mph 1012.8mb 70f 68f
3:36 2 2 mph 1012.8mb 69f 68f
3:30 2 3 mph 1012.9mb 69f 68f
3:24 3 3 mph 1012.9mb 69f 68f
3:18 2 3 mph 1012.9mb 68f 68f
3:12 2 3 mph 1013mb 67f 68f
3:06 3 3 mph 1013.1mb 66f 68f
3:00 2 3 mph 1013.1mb 66f 68f
2:54 3 3 mph 1013mb 66f 69f
2:48 3 3 mph 1013.1mb 65f 69f
2:42 2 3 mph 1013.1mb 66f 69f
2:36 2 5 mph 1013.2mb 65f 69f
2:30 3 5 mph 1013.3mb 66f 69f
2:24 3 6 mph 1013.3mb 67f 69f
2:18 2 5 mph 1013.4mb 67f 69f
2:12 5 6 mph 1013.4mb 69f 69f
2:06 3 5 mph 1013.5mb 68f 69f
2:00 5 5 mph 1013.6mb 68f 69f
1:54 3 5 mph 1013.6mb 68f 69f
1:48 5 5 mph 1013.6mb 69f 69f
1:42 3 5 mph 1013.6mb 69f 69f
1:36 3 5 mph 1013.8mb 67f 69f
1:30 3 5 mph 1013.7mb 67f 69f
1:24 3 5 mph 1013.8mb 67f 69f
1:18 3 3 mph 1013.8mb 69f 69f
1:12 3 3 mph 1013.8mb 68f 69f
1:06 3 3 mph 1013.9mb 69f 69f
1:00 3 3 mph 1013.8mb 70f 69f
12:54 3 3 mph 1013.8mb 70f 69f
12:48 2 3 mph 1013.8mb 71f 69f
12:42 3 5 mph 1013.9mb 70f 69f
12:36 3 5 mph 1014mb 70f 69f
12:30 3 3 mph 1014mb 70f 69f
12:24 3 5 mph 1014mb 69f 69f
12:18 2 3 mph 1014.1mb 68f 69f
12:12 2 3 mph 1014.1mb 68f 69f
12:06 3 3 mph 1014.1mb 68f 69f
12:00 3 5 mph 1014.1mb 67f 69f
Do 07/20 11:54 2 3 mph 1014.2mb 67f 69f
11:48 3 5 mph 1014.2mb 67f -
11:42 3 6 mph 1014.2mb 67f -
11:36 3 5 mph 1014.2mb 67f -
11:30 3 5 mph 1014.2mb 67f 69f
11:24 2 3 mph 1014.2mb 67f 69f
11:18 2 3 mph 1014.2mb 66f 69f
11:12 3 3 mph 1014.3mb 67f 69f
11:06 3 3 mph 1014.3mb 67f 69f
11:00 3 3 mph 1014.3mb 68f 69f
10:54 3 3 mph 1014.4mb 67f 69f
10:48 3 3 mph 1014.4mb - -
10:42 3 5 mph 1014.3mb - -
10:36 3 5 mph 1014.3mb - -
10:30 3 5 mph 1014.3mb 68f 70f
10:24 3 5 mph 1014.3mb 70f 70f
10:18 5 6 mph 1014.4mb 71f 70f
10:12 6 6 mph 1014.4mb 71f 70f
10:06 6 6 mph 1014.3mb 71f 70f
10:00 5 7 mph 1014.3mb 72f 70f
9:54 5 6 mph 1014.4mb 72f 70f
9:48 6 6 mph 1014.4mb 72f 70f
9:42 5 6 mph 1014.4mb 71f 70f
9:36 5 6 mph 1014.4mb 71f 70f
9:30 6 7 mph 1014.3mb 72f 70f
9:24 3 6 mph 1014.3mb 72f 70f
9:18 3 6 mph 1014.2mb 72f 70f
9:12 3 6 mph 1014.2mb 73f 70f
9:06 5 7 mph 1014.2mb 72f 70f
9:00 5 6 mph 1014.1mb 72f 70f
8:54 5 7 mph 1014.1mb 72f 70f
8:48 6 7 mph - - -
8:42 6 7 mph 1014.1mb 72f 70f
8:36 6 8 mph 1014.1mb 73f 70f
8:30 6 8 mph 1014.1mb 75f 70f
8:24 6 8 mph 1014.1mb 76f 71f
8:18 7 8 mph 1014.1mb 76f 70f
8:12 5 7 mph 1014mb 76f 71f
8:06 6 8 mph 1014mb 76f 70f
8:00 6 7 mph 1014mb 76f 71f
7:54 7 9 mph 1013.9mb 76f 70f
7:48 6 9 mph 1013.9mb 76f 70f
7:42 8 10 mph 1013.9mb 76f 70f
7:36 8 10 mph 1013.9mb 76f 71f
7:30 9 11 mph 1013.9mb 76f 70f
7:24 8 11 mph 1013.9mb 76f 71f
7:18 10 11 mph - - -
7:12 9 11 mph 1013.9mb 76f 71f
7:06 9 11 mph 1013.8mb 75f 71f